[[{"header":{"parameterUnit":"m.s-1","parameterCategory":1,"la1":30.2991,"la2":30.254,"lo1":-89.0895,"lo2":-89.0444,"dy":0.0017,"dx":0.0017,"nx":28,"ny":28,"refTime":"2025-07-21T09:00:00:Z","depth":0,"parameterNumber":2,"parameterNumberName":"U-component_of_WINDS"},"data":[0,0,0,0,0,0,0,0,0,0,0,0,0,0,0,0,0,0,0,0,0,0,0,0,0,0,0,0,0,0,0,0,0,0,0,0,0,0,0,0,0,0,0,0,0,0,0,0,0,0,0,0,0,0,0,0,0,0,3.384,3.3841,0,3.3971,3.3972,3.3974,3.3894,3.389,3.3886,3.3882,3.4027,3.4035,3.4042,0,0,0,0,0,0,0,0,0,0,0,0,0,3.3529,3.3535,3.3839,3.3841,3.3843,3.3971,3.3972,3.3974,3.3894,3.389,3.3885,3.3881,3.4025,3.4034,3.4043,0,0,0,0,0,0,0,0,0,0,0,0,0,3.3663,3.3537,3.3839,3.3818,3.3817,3.397,3.3973,3.3975,3.3895,3.389,3.3884,3.3878,3.4022,3.4033,3.4044,3.4228,0,0,3.4078,3.4083,0,0,0,0,0,0,0,0,3.3655,3.3674,3.3819,3.382,3.3819,3.391,3.3916,3.406,3.3897,3.3866,3.3882,3.3876,3.3994,3.4007,3.4044,3.4235,3.4241,3.4079,3.4086,3.4091,3.4094,0,0,0,0,0,0,0,3.3646,3.3668,3.3892,3.3822,3.3822,3.3805,3.3818,3.3943,3.3961,3.3868,3.3863,3.3879,3.3993,3.4034,3.4047,3.4243,3.4079,3.4089,3.4096,3.41,3.4592,3.4598,0,0,0,0,0,0,3.3637,3.3661,3.3887,3.3896,3.3721,3.3815,3.3829,3.3887,3.3959,3.3965,3.3884,3.3875,3.4018,3.4034,3.4052,3.4272,3.4091,3.4101,3.4107,3.4586,3.4593,3.46,0,0,0,0,0,0,3.3631,3.3658,3.3882,3.3777,3.3804,3.3827,3.3892,3.3892,3.3933,3.3971,3.3975,3.3922,3.4014,3.4036,3.4184,3.4276,3.4106,3.4116,3.4578,3.4588,3.4597,3.4713,0,0,0,0,0,0,3.3622,3.3656,3.3724,3.3779,3.381,3.401,3.3897,3.3899,3.3952,3.3941,3.4008,3.4013,3.4011,3.4168,3.4195,3.4288,3.4125,3.457,3.4582,3.4594,3.4701,3.4726,3.4746,0,0,0,0,0,3.3611,3.3754,3.3728,3.3756,3.3895,3.4015,3.4033,3.4024,3.3959,3.4029,3.4053,3.4011,3.4261,3.4184,3.4214,3.4311,3.4564,3.4579,3.4593,3.4691,3.4721,3.4746,0,0,0,0,0,0,3.3713,3.3761,3.3732,3.3896,3.3952,3.4001,3.4089,3.4056,3.4134,3.4121,3.4111,3.4127,3.4281,3.4311,3.4224,3.4494,3.4403,3.4424,3.4468,3.4496,3.4518,3.4507,3.4134,0,0,0,0,0,3.3754,3.3844,3.3882,3.4024,3.4053,3.4066,3.4118,3.4107,3.4165,3.4189,3.4224,3.4285,3.4377,3.4439,3.4526,3.4706,3.472,3.4788,3.481,3.4829,3.4847,3.4944,3.4975,3.4647,3.4647,3.4647,0,0,3.3841,3.3878,3.3936,3.4045,3.4087,3.4183,3.4087,3.4193,3.4265,3.4207,3.4347,3.4375,3.4443,3.4607,3.4681,3.4637,3.4941,3.4847,3.4861,3.487,3.4962,3.4993,3.5021,3.4657,3.4655,3.4654,0,0,3.4047,3.4084,3.4205,3.4248,3.4311,3.4319,3.4349,3.4403,3.4418,3.4558,3.4516,3.4604,3.4763,3.4812,3.4858,3.5084,3.5048,3.5113,3.5231,3.5326,3.5352,3.5374,3.5455,3.5483,3.5132,3.5132,3.5132,0,3.4148,3.4288,3.4273,3.4382,3.4431,3.4379,3.4503,3.4547,3.4637,3.4674,3.4623,3.482,3.4863,3.5038,3.5092,3.5132,3.5166,3.5105,3.5348,3.5371,3.5393,3.5469,3.5499,3.5139,3.5138,3.5138,3.5137,0,3.4408,3.4507,3.4598,3.4681,3.4742,3.4858,3.4863,3.4927,3.4911,3.4925,3.5069,3.5118,3.5213,3.5254,3.5241,3.5428,3.5398,3.5349,3.5257,3.5431,3.5503,3.5532,3.515,3.5147,3.5145,3.5143,0,0,3.4682,3.4755,3.4789,3.4826,3.4892,3.4969,3.5084,3.5174,3.5229,3.5294,3.539,3.5526,3.5479,3.5532,3.5524,3.5608,3.5783,3.5547,3.5549,3.5589,3.5992,3.6028,3.6062,3.5759,3.5765,3.5769,3.5986,0,3.4892,3.5088,3.5078,3.5263,3.5355,3.5307,3.5407,3.546,3.5477,3.556,3.558,3.5675,3.5607,3.5638,3.5719,3.5744,3.5863,3.5729,3.5852,3.5856,3.5834,3.6099,3.6138,3.634,3.6014,3.6018,3.6022,0,3.5162,3.5231,3.5425,3.5476,3.5514,3.5604,3.5686,3.5765,3.5825,3.5831,3.5889,3.5868,3.5987,3.5893,3.6058,3.5966,3.6016,3.6037,3.6044,3.6055,3.5949,3.6116,3.6404,3.6434,3.6066,3.6062,3.6059,0,3.5341,3.5484,3.5617,3.5651,3.5715,3.5779,3.581,3.5863,3.5918,3.5991,3.6026,3.6114,3.6162,3.6231,3.6235,3.6166,3.6401,3.6307,3.6411,3.6411,3.6462,3.6459,3.6761,3.6497,3.6496,3.6496,3.6495,0,3.5576,3.5696,3.5698,3.5781,3.5915,3.5904,3.6038,3.6062,3.611,3.6198,3.6165,3.6249,3.6248,3.6335,3.6339,3.6475,3.6498,3.6508,3.6507,3.651,3.6508,3.6542,3.6528,3.6504,3.6502,3.65,3.6499,0,3.5798,3.5804,3.5946,3.5994,3.601,3.6106,3.6148,3.6228,3.6242,3.6354,3.638,3.6403,3.6503,3.6513,3.6631,3.6634,3.6797,3.6782,3.6776,3.6773,3.6875,3.6865,3.7209,3.7253,3.6961,3.6964,3.6966,0,3.5946,3.6036,3.6094,3.6148,3.6181,3.6271,3.6325,3.6319,3.6378,3.6453,3.6524,3.662,3.6696,3.686,3.6888,3.6978,3.6965,3.7079,3.6978,3.6978,3.6966,3.6959,3.6968,3.7099,3.7102,3.7104,3.7106,0,3.6208,3.6207,3.6285,3.6365,3.6431,3.6494,3.6554,3.6602,3.6604,3.6672,3.6772,3.6831,3.695,3.7046,3.7134,3.7169,3.7139,3.7138,3.7167,3.717,3.7161,3.7166,3.6828,3.713,3.7128,3.7126,3.7125,3.7124,3.6397,3.6475,3.6527,3.6616,3.6659,3.6716,3.6792,3.6814,3.6897,3.699,3.6983,3.7094,3.7152,3.7267,3.7308,3.7396,3.7359,3.74,3.7411,3.7421,3.743,3.7148,3.7413,3.7412,3.7412,3.7411,3.7411,0,3.6657,3.6687,3.6769,3.6852,3.6922,3.6885,3.6949,3.7011,3.7108,3.7164,3.7239,3.7354,3.7447,3.7483,3.7575,3.7639,3.7628,3.7663,3.7658,3.7666,3.746,3.7425,3.7671,3.7671,3.7671,3.7671,3.767,3.767,3.68,3.6929,3.6934,3.7086,3.7117,3.7222,3.7262,3.7315,3.7359,3.7488,3.7564,3.7586,3.7634,3.7729,3.7814,3.7822,3.7857,3.7898,3.7901,3.7707,3.7681,3.7656,3.7623,3.7906,3.7907,3.81,3.8102,3.8103]},{"header":{"parameterUnit":"m.s-1","parameterCategory":1,"la1":30.2991,"la2":30.254,"lo1":-89.0895,"lo2":-89.0444,"dy":0.0017,"dx":0.0017,"nx":28,"ny":28,"refTime":"2025-07-21T09:00:00:Z","depth":0,"parameterNumber":3,"parameterNumberName":"V-component_of_WINDS"},"data":[0,0,0,0,0,0,0,0,0,0,0,0,0,0,0,0,0,0,0,0,0,0,0,0,0,0,0,0,0,0,0,0,0,0,0,0,0,0,0,0,0,0,0,0,0,0,0,0,0,0,0,0,0,0,0,0,0,0,2.8944,2.8945,0,2.9048,2.9049,2.905,2.9023,2.9021,2.9019,2.9017,2.9116,2.9121,2.9125,0,0,0,0,0,0,0,0,0,0,0,0,0,2.8715,2.872,2.8944,2.8945,2.8947,2.9047,2.9049,2.905,2.9023,2.9021,2.9019,2.9016,2.9115,2.912,2.9125,0,0,0,0,0,0,0,0,0,0,0,0,0,2.8816,2.8721,2.8944,2.8946,2.8947,2.9047,2.9049,2.905,2.9024,2.9021,2.9018,2.9015,2.9113,2.912,2.9126,2.9229,0,0,2.9147,2.915,0,0,0,0,0,0,0,0,2.881,2.8824,2.8944,2.8946,2.8947,2.9019,2.9004,2.911,2.9025,2.8995,2.9017,2.9014,2.9086,2.9095,2.9121,2.9233,2.9238,2.9148,2.9152,2.9155,2.9157,0,0,0,0,0,0,0,2.8803,2.882,2.8985,2.8946,2.8948,2.8938,2.8949,2.9024,2.9056,2.8997,2.8995,2.9008,2.9086,2.9114,2.9123,2.9239,2.9147,2.9153,2.9158,2.916,2.9437,2.944,0,0,0,0,0,0,2.8796,2.8814,2.8982,2.8988,2.887,2.8945,2.8957,2.8999,2.9055,2.9061,2.9011,2.9007,2.9104,2.9115,2.9126,2.9247,2.9155,2.9161,2.9165,2.9434,2.9438,2.9441,0,0,0,0,0,0,2.8791,2.8811,2.8977,2.8901,2.8921,2.8952,2.8999,2.9003,2.9031,2.9066,2.907,2.9034,2.9102,2.9117,2.9203,2.925,2.9164,2.917,2.943,2.9435,2.9439,2.9492,0,0,0,0,0,0,2.8785,2.881,2.8852,2.8902,2.8925,2.9055,2.9003,2.9007,2.9043,2.9039,2.9089,2.9094,2.9101,2.9193,2.921,2.9258,2.9175,2.9426,2.9432,2.9438,2.9486,2.9498,2.9508,0,0,0,0,0,2.8777,2.8862,2.8854,2.8874,2.8978,2.9058,2.9071,2.908,2.9048,2.9088,2.9109,2.9092,2.9243,2.9202,2.9221,2.9272,2.9423,2.943,2.9437,2.9481,2.9496,2.9508,0,0,0,0,0,0,2.8814,2.8868,2.886,2.8964,2.9007,2.9054,2.9105,2.9095,2.9147,2.914,2.9146,2.9157,2.9245,2.9267,2.9221,2.9372,2.9328,2.9339,2.9354,2.9369,2.938,2.9372,2.9181,0,0,0,0,0,2.8835,2.8898,2.8941,2.9028,2.905,2.9074,2.9109,2.9112,2.9155,2.9173,2.9201,2.9242,2.9298,2.9335,2.9388,2.9489,2.9498,2.9533,2.9544,2.9553,2.9563,2.9614,2.9629,2.9465,2.9465,2.9465,0,0,2.8877,2.8915,2.8954,2.9036,2.907,2.9132,2.9089,2.9157,2.9202,2.9182,2.9266,2.9287,2.9333,2.9426,2.9469,2.9447,2.961,2.9563,2.957,2.9574,2.9623,2.9639,2.9652,2.947,2.947,2.9469,0,0,2.8986,2.9022,2.9098,2.9132,2.9184,2.9199,2.9217,2.9265,2.9279,2.9363,2.9348,2.94,2.9498,2.953,2.9559,2.9678,2.9663,2.9695,2.9752,2.9803,2.9815,2.9827,2.9866,2.9881,2.9704,2.9705,2.9705,0,2.9032,2.9128,2.9137,2.9206,2.9241,2.9228,2.9302,2.9334,2.9399,2.9422,2.9398,2.9519,2.9549,2.9648,2.9676,2.9701,2.9719,2.9689,2.9813,2.9825,2.9836,2.9873,2.9888,2.9708,2.9708,2.9707,2.9707,0,2.9179,2.9245,2.93,2.9365,2.9406,2.9477,2.9495,2.9535,2.9533,2.955,2.9633,2.9669,2.9728,2.9752,2.9751,2.985,2.9835,2.9812,2.9767,2.9854,2.989,2.9904,2.9713,2.9712,2.9711,2.971,0,0,2.9315,2.9384,2.9403,2.9431,2.9486,2.9536,2.9605,2.9665,2.9697,2.9743,2.9798,2.988,2.9859,2.9892,2.9894,2.9938,3.0026,2.9909,2.991,2.9927,3.0133,3.0148,3.0165,3.0016,3.0019,3.0022,3.0128,0,2.9427,2.9551,2.956,2.9671,2.973,2.9716,2.9776,2.9814,2.9831,2.9881,2.9898,2.9955,2.9924,2.9943,2.9987,3.0006,3.0067,2.9999,3.0065,3.0067,3.0052,3.0184,3.0201,3.03,3.0142,3.0145,3.0147,0,2.9574,2.9625,2.9742,2.9786,2.9811,2.9865,2.9918,2.9968,3.0009,3.0018,3.0054,3.0049,3.0116,3.007,3.016,3.0114,3.0141,3.0154,3.0158,3.0163,3.0111,3.019,3.0333,3.0347,3.0169,3.0167,3.0165,0,2.9658,2.9755,2.9837,2.9862,2.9916,2.9954,2.9977,3.0016,3.0051,3.0097,3.0118,3.0171,3.02,3.0239,3.0247,3.0213,3.0336,3.0292,3.0342,3.0342,3.0368,3.0366,3.0514,3.0389,3.0389,3.0389,3.0388,0,2.9781,2.9852,2.9875,2.9925,3.0003,3.0012,3.0088,3.0109,3.0143,3.0195,3.0186,3.0234,3.0243,3.0291,3.0298,3.037,3.0383,3.0389,3.039,3.0389,3.0388,3.0406,3.0398,3.0393,3.0392,3.0391,3.039,0,2.9887,2.9906,2.9994,3.0038,3.005,3.0106,3.0142,3.0188,3.0203,3.0268,3.0283,3.0306,3.0363,3.0376,3.0443,3.0447,3.0531,3.0526,3.0518,3.0517,3.0566,3.056,3.0729,3.0751,3.0614,3.0615,3.0616,0,2.9963,3.0018,3.0068,3.0103,3.0129,3.0185,3.022,3.0229,3.0265,3.0316,3.0355,3.0411,3.0456,3.0546,3.0567,3.0617,3.0612,3.0667,3.0619,3.0616,3.0609,3.0605,3.0609,3.0676,3.0678,3.0679,3.068,0,3.0095,3.0102,3.0154,3.0209,3.0251,3.0295,3.0335,3.0364,3.0378,3.0419,3.0477,3.0513,3.0581,3.0635,3.0685,3.0706,3.0694,3.0695,3.0709,3.0708,3.07,3.0702,3.054,3.0691,3.069,3.0689,3.0688,3.0688,3.0187,3.0234,3.0276,3.0333,3.0366,3.0404,3.0449,3.0469,3.0519,3.0577,3.0579,3.0642,3.0678,3.0745,3.0769,3.0816,3.0798,3.0819,3.0824,3.0828,3.0831,3.0694,3.0825,3.0825,3.0824,3.0824,3.0824,0,3.0316,3.0343,3.0396,3.0454,3.0498,3.0486,3.053,3.0566,3.0623,3.0659,3.0704,3.0769,3.0822,3.0846,3.0897,3.093,3.0925,3.0942,3.0939,3.0943,3.0846,3.0828,3.0945,3.0945,3.0945,3.0945,3.0945,3.0945,3.0389,3.0467,3.0477,3.0569,3.0594,3.0657,3.0683,3.0717,3.0746,3.082,3.0864,3.088,3.0911,3.0963,3.1009,3.1015,3.1033,3.1052,3.1054,3.0963,3.095,3.0939,3.0921,3.1056,3.1056,3.1147,3.1148,3.1149]}]]